Location: Eppenbrunn
(49.1158°N, 7.5601°E)
Time: 06:54:23
(UTC+00:00)

Cosmos 1726 - Pass Details

Date: 09 April 2020
Orbit: 482 x 500 km, 82.5° (Epoch: 01 June)

Event Time Altitude Azimuth Distance (km) Brightness Sun altitude
Rises 19:01:23 0° 199° (SSW) 2,582 5.7 -8.3°
Reaches altitude 10° 19:03:32 10° 204° (SSW) 1,703 4.9 -8.6°
Maximum altitude 19:07:11 54° 283° (WNW) 617 3.0 -9.1°
Drops below altitude 10° 19:10:52 10° 1° (N) 1,712 5.1 -9.7°
Sets 19:13:02 0° 6° (N) 2,598 6.0 -10.0°
